Regional Weather Roundup
Issued by NWS Wakefield, VA

Home | Current Version | Previous Version | Text Only | Print | Product List | Glossary Off
Versions: 1 2 3 4 5 6 7 8 9 10 11 12 13 14 15 16 17 18 19 20 21 22 23 24 25 26 27 28 29 30 31 32 33 34 35 36 37 38 39 40 41 42 43 44 45 46 47 48 49 50

000
ASUS41 KAKQ 272114
RWRAKQ

REGIONAL WEATHER ROUNDUP
NATIONAL WEATHER SERVICE WAKEFIELD VA
500 PM EDT MON APR 27 2015

Note: "fair" indicates few or no clouds below 12,000 feet with no
significant weather and/or obstructions to visibility. * = Denotes
station may not report precipitation (e.g., rain,snow,etc.),
thunder or fog.

VAZ042-051-052>054-056-272200-
NORTHERN VIRGINIA

CITY           SKY/WX    TMP DP  RH WIND       PRES   REMARKS
WASH NATIONAL  PTSUNNY   60  32  34 W16G23    29.78S
DULLES         CLOUDY    55  32  41 NW18G25   29.80R
FORT BELVOIR   PTSUNNY   57  33  39 NW14G24   29.79R
QUANTICO       PTSUNNY   59  32  36 NW9G26    29.80S
FREDERICKSBRG* CLOUDY    60  32  35 NW17G23   29.78S
STAFFORD*      FAIR      57  31  37 NW18G24   29.83S
WARRENTON      CLOUDY    59  37  43 W13       29.80S
CULPEPER*      MOSUNNY   59  32  36 NW10G16   29.81S
MANASSAS*      CLOUDY    57  34  41 NW15      29.80S
LEESBURG*      CLOUDY    55  37  50 NW8G16    29.81R
WINCHESTER     CLOUDY    55  27  33 NW13      29.80S
FRONT ROYAL*   CLOUDY    55  32  41 NW6       29.81R
LURAY*         CLOUDY    61  34  36 NW9       29.82S
$$

VAZ048-049-060>072-079>083-272200-
CENTRAL AND SOUTH CENTRAL VIRGINIA

CITY           SKY/WX    TMP DP  RH WIND       PRES   REMARKS
RICHMOND       CLOUDY    61  34  36 N14       29.78R
CHESTERFIELD*  CLOUDY    61  30  31 N12       29.80R
PETERSBURG*    CLOUDY    64  31  29 W8        29.79R
HANOVER        CLOUDY    59  34  39 N8        29.81R
TAPPAHANNOCK*  PTSUNNY   60  29  30 NW8G16    29.78R
QUINTON*       CLOUDY    60  35  39 N6        29.77R
CHARLOTTSVILLE PTSUNNY   59  30  33 NW12G18   29.82R
GORDONSVILLE*  FAIR      57  31  36 NW12      29.82R
ORANGE*        PTSUNNY   59  32  36 W15       29.83R
LOUISA*        PTSUNNY   61  32  33 NW12G18   29.81R
BUMPASS*       MOCLDY    58  31  36 N9G18     29.81R
FARMVILLE*     CLOUDY    61  32  34 N8        29.80R
CREWE*         CLOUDY    61  34  35 NW9G17    29.79R
FORT PICKETT*  CLOUDY    63  36  36 NW8G18    29.78R
CHASE CITY*    CLOUDY    64  38  38 NW7       29.81R
CLARKSVILLE*   CLOUDY    63  36  36 NW6       29.80R
SOUTH HILL*    CLOUDY    62  35  36 NW6       29.85R
LAWRENCEVILLE* CLOUDY    63  38  40 NW7       29.77R
EMPORIA*       CLOUDY    61  36  39 W5        29.80R
$$

VAZ088>098-272200-
SOUTHEAST VIRGINIA

CITY           SKY/WX    TMP DP  RH WIND       PRES   REMARKS
NORFOLK        CLOUDY    61  39  44 NE8       29.76R
VIRGINIA BEACH PTSUNNY   63  37  38 N10       29.76R
NORFOLK NAVAL  PTSUNNY   63  40  42 NE8       29.78R
WEST POINT*    PTSUNNY   65  29  25 NW8       29.78R
SALUDA*        MOCLDY    61  38  41 NW13G20   29.76R
NEWPORT NEWS   CLOUDY    62  42  47 NE6       29.77R
LANGLEY AFB    PTSUNNY   59  42  54 NE7       29.76R
FORT EUSTIS    PTSUNNY   62  38  40 NW14      29.75R
WILLIAMSBURG*  MOSUNNY   66  39  37 N6        29.77R
HR EXEC AP*    CLOUDY    63  39  42 N6        29.78R
FRANKLIN*      CLOUDY    63  36  36 NW5       29.77R
WAKEFIELD      CLOUDY    63  36  36 N6        29.77R
$$

VAZ020-022-025-037-045-272200-
WEST CENTRAL AND SOUTHWEST VIRGINIA

CITY           SKY/WX    TMP DP  RH WIND       PRES   REMARKS
STAUNTON*      PTSUNNY   54  30  40 NW9       29.86R
WAYNESBORO*    CLOUDY    52  30  43 N8G17     29.84R
HOT SPRINGS VA CLOUDY    43  27  53 NW10G20   29.84R
LYNCHBURG      PTSUNNY   60  30  32 MISG      29.84R
DANVILLE       MOSUNNY   63  31  30 N13G25    29.84R
SOUTH BOSTON*  MOCLDY    63  32  31 W9        29.82R
MARTINSVILLE   PTSUNNY   62  31  30 NW16G24   29.89R
ROANOKE        PTSUNNY   57  31  37 NW14      29.89R
BLACKSBURG     CLOUDY    51  30  45 NW14G20   29.92R
DUBLIN*        CLOUDY    53  31  42 N9        29.91R
MARION*        PTSUNNY   53  29  39 NW12G21   29.93R
HILLSVILLE*    PTSUNNY   53  30  42 NW20      29.89R
RICHLANDS*     CLOUDY    51 -10   8 NW12      29.92S
WISE*          CLOUDY    57  28  33 W8G20     29.94S
ABINGDON*      PTSUNNY   58  30  34 N10G16    29.92S
$$

MDZ021>025-VAZ099-100-272200-
SOUTHERN MARYLAND AND THE DELMARVA PENINSULA

CITY           SKY/WX    TMP DP  RH WIND       PRES   REMARKS
PATUXENT RIVER PTSUNNY   61  36  39 NW22G28   29.75S
BAY BRIDGE APT   N/A    N/A N/A N/A NW10      29.76S
LEONARDTOWN    CLOUDY    59  32  36 NW8G17    29.78R
DOVER          CLOUDY    58  34  40 NW18G25   29.69R
GEORGETOWN     CLOUDY    58  33  39 W9G21     29.73R
EASTON         PTSUNNY   59  39  47 NW12G18   29.78S
CAMBRIDGE      MOSUNNY   59  32  36 NW12G21   29.75S
SALISBURY      CLOUDY    58  33  39 NW12      29.73S
OCEAN CITY     CLOUDY    58  31  35 NW12G22   29.72S
WALLOPS ISLAND PTSUNNY   60  35  39 NW12      29.73S
ACCOMACK*      SUNNY     59 -17   4 N10G21    29.75R
$$

NCZ012>017-030>032-272200-
NORTH CENTRAL AND EASTERN NORTH CAROLINA

CITY           SKY/WX    TMP DP  RH WIND       PRES   REMARKS
ROANOKE RAPIDS MOCLDY    64  37  36 W12       29.78R
RALEIGH        MOSUNNY   67  35  30 NW12G18   29.81R
ELIZABETH CITY PTSUNNY   59  41  51 E8        29.77R
AHOSKIE*       MOSUNNY   64  37  35 NW3       29.78R
EDENTON*       MOSUNNY   68  36  30 NW7       29.76R
CURRITUCK*     PTSUNNY   58  38  47 NE6       29.77R
KILL DEVIL HLS SUNNY     57  41  55 NE5       29.76R
MANTEO         SUNNY     59  40  49 NE14      29.77R
CAPE HATTERAS  SUNNY     64  43  46 W10       29.75R
TARBORO*       MOCLDY    67  38  33 NW8       29.79R
GOLDSBORO      MOSUNNY   68  37  31 W9        29.77R
WASHINGTON     MOSUNNY   67  37  32 N12       29.76S
GREENVILLE     MOSUNNY   68  36  30 NW6       29.80R
NEW BERN       MOSUNNY   69  40  34 NW8       29.77R
WILMINGTON     MOSUNNY   71  42  35 NW12      29.77S
$$

VAZ048-272200-
ELSEWHERE

CITY           SKY/WX    TMP DP  RH WIND       PRES   REMARKS
HARRISBURG PA  CLOUDY    56  30  37 N10       29.76R
BALTIMORE      CLOUDY    57  31  37 NW10      29.75S
ANNAPOLIS      CLOUDY    57  33  40 NW9       29.75S
ANDREWS AFB    PTSUNNY   57  32  38 NW17      29.76S
PHILADELPHIA   PTSUNNY   58  31  35 NW15      29.72R
HENDERSON NC   PTSUNNY   64  31  28 NW9G18    29.81R
GREENSBORO     MOSUNNY   67  32  27 NW10G18   29.83R
ROCKY MOUNT    MOSUNNY   69  35  28 NW12G18   29.78R
$$

VAZ100-272200-
MARINE

STATION/POSITION TIME  TEMP    WIND        PRES    WAVE   SWELL
                       AIR SEA DIR/SP/G            HT/PER HT/PER
                 (UTC) (F)     (DEG/KT/KT) (MB)    (FT/S) (FT/S)
BRANDYWINE LGT   2000   55 53  350/ 12/ 14 1006.1F
CAPE MAY NJ      2000   57 56  320/ 11/ 14 1005.6F
LEWES DE         2000   55 53  340/  8/ 10 1005.9F
15NM E FENWICK I 2050   51 49              1006.0R   2/ 8
OCEAN-CITY-INLET 2000   57 51  340/ 12/ 16 1006.1F
WACHAPREAGUE VA  2000   62 59  310/  4/ 10 1006.7F
THOMAS POINT MD  2100   57 54  300/ 14/ 15 1008.0S
GOOSES REEF MD   2100   56 54  320/ 16/ 19   N/A     1/ 2
COVE POINT MD    2000   56     340/ 12/ 18 1008.2F
SOLOMONS ISLAND  2000      56                N/A
BISHOPS HEAD MD  2000   58 60  300/ 14/ 19 1006.9F
PINEY POINT MD   2000          330/ 19/ 20   N/A
CAMBRIDGE MD     2000   58 58  300/ 13/ 17 1007.3F
LEWISETTA VA     2000   59 58              1007.3F
RAPPAHANNOCK LGT 2000          350/  7/  8 1007.8F
YORK RVR RNG VA  2000   56      80/  9/ 10 1006.6F
YORKTOWN VA      2000   57 59  100/  8/  9 1006.9F
JAMESTOWN VA     2100   61 63  320/  6/ 10 1007.1R
DOMINION TERM VA 2000   61      30/  2/  7 1006.9F
KIPTOPEKE VA     2000      63  330/  8/ 11   N/A
CHES BAY BRIDGE  2000   55 57   40/  6/  7 1006.8F
CAPE HENRY VA    2000   56      50/  4/  5 1005.9F
CHESAPEAKE LGHT  2000   51      70/  5/  5 1007.9F
WILLOUBY STN VA  2000   56      40/ 11/ 12 1007.7F
S CRANEY ISL VA  2000           30/ 11/ 12 1006.8F
CAPE HENRY BUOY  2028      53                N/A     2/ 8
OFFSHORE WE BUOY 2011      51                N/A     3/ 7   3/ 7
64NM E OF VA BCH 2050   54 56  360/ 10/ 12 1007.0R   3/ 7   2/ 7
DUCK PIER NC     2000   53 56   50/ 14/ 16 1006.4F
44056 DUCK FRF   2011      55                N/A     3/ 8
OREGON INLET NC  2000   57 58  360/ 12/ 18 1006.6R
HATTERAS NC      2000   65 62  260/  9/ 11 1005.9F
DIAMOND SHLS NC  2050   64 75  270/ 10/ 16 1007.5R   4/ 8   3/ 8
CAPE LOOKOUT NC  2100   64     230/  7/  9 1007.6R
$$


USA.gov is the U.S. government's official web portal to all federal, state and local government web resources and services.